Location: Allens Landing
(37.8284°N, 89.7284°W)
Time: 15:47:18
(UTC+00:00)

Transit 2A - All Passes

Search period start: 02 November 2024 00:00
Search period end: 12 November 2024 00:00
Orbit: 591 x 959 km, 66.7° (Epoch: 01 November)

Date Brightness Start Highest point End Pass type
(mag) Time Alt. Az. Time Alt. Az. Time Alt. Az.
02 Nov - 11:41:30 10° SSE 11:46:54 32° ESE 11:52:25 10° NE visible
02 Nov - 13:23:59 10° SW 13:29:54 43° NW 13:35:55 10° NNE daylight
02 Nov - 20:30:43 10° N 20:34:46 19° NE 20:38:32 10° E daylight
02 Nov - 22:12:54 10° NNW 22:18:31 67° WSW 22:23:31 10° SSE daylight
03 Nov - 11:07:00 10° SSE 11:11:34 22° ESE 11:16:14 10° ENE visible
03 Nov - 12:48:04 10° SW 12:54:13 61° WNW 13:00:31 10° NNE daylight
03 Nov - 14:35:55 10° WNW 14:38:40 13° NW 14:41:26 10° NNW daylight
03 Nov - 19:55:56 10° N 19:58:48 14° NE 20:01:34 10° ENE daylight
03 Nov - 21:37:18 10° NNW 21:43:01 80° ENE 21:48:05 10° SSE daylight
03 Nov - 23:23:38 10° W 23:25:06 11° W 23:26:33 10° WSW visible
04 Nov - 10:33:13 10° SE 10:36:19 14° ESE 10:39:28 10° ENE visible
04 Nov - 12:12:23 10° SSW 12:18:38 86° WNW 12:25:01 10° NNE daylight
04 Nov - 13:58:35 10° W 14:02:41 18° NW 14:06:47 10° N daylight
04 Nov - 21:01:50 10° NNW 21:07:24 53° ENE 21:12:23 10° SE daylight
04 Nov - 22:46:15 10° WNW 22:49:54 18° WSW 22:53:18 10° SW daylight
05 Nov - 11:36:57 10° SSW 11:43:06 66° ESE 11:49:24 10° NNE visible
05 Nov - 13:21:48 10° W 13:26:47 24° NW 13:31:47 10° N daylight
05 Nov - 20:26:27 10° NNW 20:31:41 36° NE 20:36:25 10° ESE daylight
05 Nov - 22:09:56 10° NW 22:14:37 29° WSW 22:18:53 10° SSW daylight
06 Nov - 11:01:47 10° S 11:07:39 45° ESE 11:13:39 10° NE visible
06 Nov - 12:45:23 10° WSW 12:50:58 32° NW 12:56:35 10° N daylight
06 Nov - 19:51:13 10° N 19:55:53 25° NE 20:00:10 10° ESE daylight
06 Nov - 21:33:59 10° NW 21:39:15 45° WSW 21:43:59 10° S daylight
07 Nov - 10:26:55 10° SSE 10:32:15 31° ESE 10:37:42 10° NE visible
07 Nov - 12:09:13 10° SW 12:15:13 45° NW 12:21:16 10° NNE daylight
07 Nov - 19:16:10 10° N 19:20:00 18° NE 19:23:35 10° E daylight
07 Nov - 20:58:14 10° NNW 21:03:49 71° WSW 21:08:46 10° SSE daylight
08 Nov - 09:52:28 10° SSE 09:56:55 21° ESE 10:01:26 10° ENE visible
08 Nov - 11:33:19 10° SW 11:39:32 64° WNW 11:45:50 10° NNE visible
08 Nov - 13:20:56 10° WNW 13:23:54 13° NW 13:26:52 10° NNW daylight
08 Nov - 18:41:28 10° NNE 18:44:01 13° NE 18:46:27 10° ENE daylight
08 Nov - 20:22:38 10° NNW 20:28:16 76° ENE 20:33:16 10° SSE daylight
08 Nov - 22:08:35 10° W 22:10:24 12° W 22:12:10 10° WSW daylight
09 Nov - 09:18:50 10° SE 09:21:38 13° E 09:24:29 10° ENE visible
09 Nov - 10:57:39 10° SSW 11:03:56 90° ESE 11:10:18 10° NNE visible
09 Nov - 12:43:41 10° W 12:47:55 18° NW 12:52:08 10° N daylight
09 Nov - 19:47:09 10° NNW 19:52:37 50° ENE 19:57:30 10° SE daylight
09 Nov - 21:31:25 10° WNW 21:35:10 19° WSW 21:38:39 10° SSW daylight
10 Nov - 10:22:14 10° SSW 10:28:24 63° ESE 10:34:39 10° NE visible
10 Nov - 12:06:55 10° WSW 12:12:00 25° NW 12:17:05 10° N visible
10 Nov - 19:11:46 10° NNW 19:16:52 34° NE 19:21:29 10° ESE daylight
10 Nov - 20:55:09 10° NW 20:59:51 30° WSW 21:04:08 10° SSW daylight
11 Nov - 09:47:05 10° S 09:52:55 43° ESE 09:58:50 10° NE visible
11 Nov - 11:30:30 10° WSW 11:36:10 34° NW 11:41:51 10° NNE visible
11 Nov - 18:36:33 10° N 18:41:02 24° NE 18:45:10 10° E daylight
11 Nov - 20:19:12 10° NW 20:24:28 47° WSW 20:29:10 10° S daylight
